Starlink 1545

operational
NORAD ID: 46156 Int'l Des: 2020-057 Owner: SPXS Country: US Constellation: starlink
LEOCIRCULARSTARLINK_TYPE

关于 Starlink 1545

正在加载描述...

实时位置

正在加载3D地球...

即将过境

高度历史

Altitude vs Time

uPlot chart will show altitude changes over time

两行轨道根数

1 46156U 20057AR 25258.58320489 .00000735 00000-0 68225-4 0 9999
2 46156 53.0570 2.7112 0001448 110.3113 249.8032 15.06398690281202
Epoch: Sep 15, 2025 • Age: 21 hours

当前状态

高度 548.3 km
速度 7.59 km/s
星下点 32.05°N, 14.49°W
发射日期 Aug 18, 2020
运行时间 5 years
类型 internet

技术详情

分类 Payload
质量 260.00 kg
干质量 248.00 kg
总质量 260.00 kg
长度 0.20 m
直径 2.80 m
跨度 9.00 m
形状 Box + pan
制造商 SPXS
平台类型 Starlink
阶段状态 In Orbit
所有者/国家 SPXS/US

大型星座

Loading constellations...